RH
65 64 66 66 63 56 52 51 50 48 47 46 46 45 45 44 42 42 40 38 36 35 33 33 37 49 65 81 90 93 95 96 91 82 79 79 65 45 45 66 84 91 93 91 84 79 83 87 89 96 102 100 99 99 98 97 97 97 97 95 88 71 56 54 57 60 62 61 65 68 65 62 61 56 50 44 39 34 31 30 26 23 20 17 17
68 64 62 62 61 58 55 52 50 50 48 47 45 44 44 43 42 41 40 40 40 38 36 35 34 35 40 55 75 90 97 100 100 92 82 80 75 56 41 49 74 94 100 97 93 89 86 89 95 100 101 100 99 99 97 96 96 97 97 95 87 75 67 64 62 64 67 66 67 70 69 68 64 58 56 54 47 41 36 31 25 20 18 16 16
75 71 67 64 63 61 59 57 56 54 51 48 46 45 45 44 44 44 41 40 40 40 39 36 35 34 34 38 54 78 94 99 102 99 87 79 79 70 49 40 54 80 98 100 98 98 95 93 98 101 100 100 100 99 98 97 97 98 97 95 91 84 77 70 67 70 73 73 73 73 73 74 69 61 61 63 56 49 44 36 26 19 17 16 15
79 77 73 69 66 64 62 59 58 57 54 53 52 51 50 47 44 42 42 41 40 40 40 37 34 32 31 32 38 57 82 96 100 99 91 81 77 76 64 46 40 54 81 100 101 99 100 99 100 101 100 100 100 99 99 98 99 98 98 97 95 91 85 79 79 83 84 84 84 83 82 80 74 65 65 67 61 53 46 35 24 18 16 15 14
81 81 78 74 68 64 63 61 61 61 60 58 56 53 51 48 45 43 42 42 41 41 42 40 36 30 28 30 32 40 60 85 100 101 94 84 77 76 73 60 46 41 59 88 101 99 100 101 100 101 100 98 98 100 99 98 99 98 98 99 98 96 94 93 94 95 93 93 92 91 89 85 77 71 69 66 60 53 43 29 20 17 16 15 13
82 82 81 79 73 68 65 64 66 66 65 62 59 55 52 50 48 45 45 46 44 43 42 39 39 39 36 31 30 38 50 66 90 102 98 89 80 75 74 71 63 48 44 67 95 102 99 100 101 100 99 98 97 100 100 98 99 98 98 100 100 99 99 98 98 98 97 96 94 92 89 84 80 76 70 62 56 50 37 23 17 16 15 14 12
88 87 87 85 81 78 76 77 79 78 76 70 64 60 59 54 48 43 45 50 50 47 49 53 56 57 52 38 36 60 75 68 75 96 102 97 87 78 75 75 72 61 44 48 79 101 101 98 101 101 100 100 99 101 100 98 97 98 99 101 101 100 100 99 100 99 97 95 93 92 89 86 82 76 65 57 51 41 27 18 16 15 14 13 11
95 95 94 91 89 92 93 93 94 93 88 82 73 68 64 55 49 45 47 52 54 53 57 65 68 60 51 42 45 78 102 85 70 85 100 101 96 90 85 81 78 70 50 39 59 90 101 97 96 98 100 100 100 101 100 99 99 99 100 101 100 100 101 101 101 99 96 96 94 94 93 88 82 71 59 51 40 28 18 15 16 16 14 12 10
93 93 94 95 96 100 100 100 100 97 94 91 83 75 67 60 55 51 49 51 55 57 57 62 68 61 52 54 62 82 103 96 78 84 98 101 99 99 97 93 89 79 60 42 42 65 89 98 97 97 100 100 99 100 99 99 100 99 100 100 100 100 101 101 100 99 98 97 96 96 95 87 75 63 51 40 27 18 15 15 16 15 13 11 10
89 89 93 96 97 98 99 100 99 96 96 94 83 72 67 61 55 51 51 55 60 65 67 69 74 72 70 80 87 88 97 101 93 92 99 100 99 100 100 100 99 90 72 51 37 40 59 80 90 93 98 100 97 97 99 100 101 101 100 100 100 100 100 99 99 100 99 97 98 97 92 81 65 52 40 27 18 16 15 15 15 14 12 11 9
91 91 93 93 91 91 92 93 91 90 96 94 80 72 67 57 51 50 54 62 68 75 82 86 87 87 88 93 95 91 95 102 100 95 96 99 100 100 100 100 101 98 82 59 43 33 33 48 64 74 85 94 95 97 100 99 96 97 97 99 101 100 99 99 100 101 99 97 99 95 83 69 52 37 26 18 15 17 15 14 14 12 11 11 8
98 95 91 88 85 82 82 84 82 81 86 86 78 73 66 55 51 52 54 62 72 77 84 91 94 95 95 92 89 90 95 98 98 96 96 99 101 100 100 101 100 101 92 70 50 39 31 34 45 55 69 85 93 97 98 93 89 92 97 100 101 99 100 100 100 100 99 98 98 90 71 52 37 24 17 16 16 16 15 13 13 11 10 10 8
102 98 91 85 81 78 77 80 81 77 77 80 76 70 62 55 55 58 56 61 70 74 76 85 93 96 96 92 87 88 94 95 95 97 98 100 101 99 100 101 99 101 99 83 62 46 37 34 36 41 54 73 86 93 97 96 94 97 101 100 100 100 100 100 100 100 99 98 94 79 54 35 25 18 15 16 15 14 14 12 11 11 9 9 8
98 95 89 83 83 83 81 83 84 78 78 82 79 68 59 54 57 60 59 62 72 78 75 77 90 97 96 93 88 86 94 98 97 99 100 100 101 99 98 100 101 100 101 95 79 60 48 41 36 35 45 66 86 97 100 100 99 101 101 99 100 101 100 100 101 99 99 97 85 63 39 24 19 16 14 14 13 13 13 11 10 10 8 8 9
91 90 86 84 88 90 89 93 90 81 83 88 82 73 64 55 55 61 62 65 74 80 75 74 84 92 93 92 87 82 89 99 100 100 100 100 100 98 96 100 101 100 101 101 92 74 59 48 37 33 41 60 83 99 100 99 100 101 100 100 100 100 100 100 100 99 98 90 68 44 27 18 15 14 12 13 12 12 12 10 10 9 8 8 8
87 86 83 84 92 94 93 96 91 84 90 91 80 75 69 54 51 58 61 62 66 67 66 70 77 83 87 91 88 81 85 96 101 100 99 101 102 97 94 98 102 101 101 101 96 83 64 47 36 36 42 51 69 90 98 100 101 100 99 100 100 100 101 100 100 99 94 74 47 28 19 15 13 13 13 12 11 11 10 10 9 9 9 9 7
83 81 80 85 95 98 95 95 91 87 90 85 76 77 72 54 49 55 58 58 57 54 56 63 70 75 83 91 90 81 83 93 99 101 100 100 101 98 94 96 101 101 101 101 97 84 64 48 42 43 47 55 72 90 100 100 100 100 100 101 100 100 101 100 99 96 82 57 34 21 16 14 13 13 12 11 11 11 10 9 9 9 8 9 8
79 79 81 88 96 94 92 98 99 90 85 79 74 76 71 55 49 53 54 52 50 50 56 64 69 72 78 87 89 82 82 92 99 101 101 101 100 97 95 98 101 101 101 101 94 80 65 55 49 51 62 79 92 98 101 100 99 100 101 100 100 100 100 100 98 89 68 43 25 17 14 14 13 12 12 11 10 10 10 9 9 9 8 9 9
79 82 86 94 96 88 87 98 101 91 81 75 74 75 67 53 49 51 50 47 43 47 58 67 73 74 72 80 89 86 82 91 99 100 101 101 99 96 96 99 102 101 101 97 86 76 68 57 53 64 84 98 101 99 100 99 98 100 101 100 100 100 100 99 94 78 55 32 19 15 14 14 13 11 11 11 10 9 10 9 9 9 9 9 9
85 88 93 99 95 84 84 94 96 90 84 80 78 75 62 50 49 50 46 43 44 50 62 72 80 81 74 78 91 93 88 94 101 100 100 101 100 99 99 101 102 101 100 96 86 79 74 66 67 83 98 101 99 99 99 98 99 101 101 99 100 100 100 98 87 66 42 24 16 14 14 13 12 12 11 11 10 9 9 9 9 9 10 9 9
92 97 100 98 88 79 83 93 96 95 95 89 79 70 60 54 51 45 44 50 58 65 73 81 86 85 78 81 95 100 97 99 101 99 100 101 99 100 101 101 102 101 101 100 95 91 89 86 88 96 101 99 99 100 99 99 101 101 100 99 100 100 99 92 74 50 30 20 15 14 14 13 12 12 11 10 9 9 9 9 9 10 10 10 10
98 103 100 89 79 77 86 97 100 101 101 92 74 61 59 57 52 51 61 72 76 78 84 91 92 87 82 88 99 102 99 100 101 100 100 100 99 100 101 101 100 100 100 101 100 99 100 99 98 99 100 100 100 101 100 101 101 101 100 99 99 101 97 81 57 36 22 17 15 14 13 13 12 11 11 10 9 9 9 9 9 10 11 10 10
101 102 94 84 80 86 94 98 99 102 101 88 68 55 54 55 58 66 79 85 86 89 95 99 98 92 89 94 100 101 100 100 100 100 100 100 100 100 100 100 101 101 100 100 101 101 101 100 99 100 100 100 100 101 101 101 101 101 100 100 100 100 89 65 42 26 18 16 15 14 13 12 12 11 11 10 9 9 9 8 9 11 12 12 12
101 101 95 91 92 94 92 91 95 100 94 77 61 53 55 62 67 73 82 90 96 100 100 100 101 99 98 100 100 100 100 100 100 100 100 100 100 101 101 102 100 100 100 100 100 101 100 99 100 100 100 101 100 100 102 102 100 99 99 100 101 95 75 50 31 21 17 15 14 14 13 12 12 11 10 11 10 9 9 8 8 10 12 13 14
101 101 95 92 90 86 84 90 96 93 81 70 64 60 61 67 70 74 86 98 101 101 100 100 101 100 100 100 100 100 101 100 100 101 100 100 101 101 99 98 96 96 100 101 100 99 99 100 100 100 101 102 100 100 102 101 98 96 97 100 99 84 57 35 23 18 17 16 14 13 13 12 12 12 11 11 11 10 10 9 8 9 11 13 15
101 100 96 94 92 89 91 97 93 80 74 77 77 71 73 79 81 85 96 102 100 99 101 101 100 100 101 101 100 100 100 100 100 100 100 101 100 94 93 95 95 93 96 99 100 99 100 100 101 101 101 101 100 101 101 100 96 95 97 99 91 67 40 25 20 18 17 16 14 14 14 13 13 13 12 12 12 11 11 10 9 10 10 11 15
100 100 100 101 98 97 100 99 87 76 76 79 75 73 82 90 90 92 99 101 100 100 101 100 101 101 100 100 101 100 100 101 101 101 101 99 93 90 95 98 95 92 93 97 99 100 101 101 100 99 98 99 101 102 100 98 96 96 99 95 75 47 27 21 20 18 17 16 15 15 14 14 14 14 13 13 13 13 12 12 11 11 10 10 12
100 100 101 101 98 96 97 95 87 78 75 75 75 80 87 88 85 90 99 101 100 100 100 100 102 101 100 101 101 101 101 100 99 101 102 97 91 95 101 97 89 92 99 100 98 99 100 100 98 97 98 101 102 101 100 99 98 98 98 86 59 33 23 21 19 18 18 17 16 16 16 15 15 15 15 15 14 14 14 14 13 12 12 10 10
100 99 101 102 99 95 91 87 82 76 72 75 83 91 93 87 83 89 99 101 101 101 101 101 100 100 101 101 100 100 101 98 93 92 94 93 91 99 104 94 83 90 101 101 99 99 100 101 101 99 101 102 101 100 101 100 100 100 93 73 46 28 23 22 20 20 20 18 18 17 17 16 16 17 16 16 16 16 15 15 15 14 13 12 11
98 98 101 101 100 98 92 82 75 69 68 75 83 90 93 89 82 84 93 99 102 101 100 100 100 100 101 100 99 100 100 99 96 90 90 94 96 100 103 93 83 90 101 101 99 99 99 101 102 100 101 101 100 100 101 99 100 98 83 58 37 27 24 23 23 22 21 20 20 18 18 18 18 18 18 17 17 18 17 17 16 15 14 13 12
95 96 99 98 100 102 94 80 69 65 69 78 84 87 89 89 84 84 90 96 100 100 100 99 98 99 101 101 100 99 97 98 99 93 91 97 100 100 101 93 85 92 102 101 98 100 100 101 101 100 101 101 100 100 100 100 100 92 70 46 32 27 26 25 25 24 22 22 21 20 20 20 20 19 20 19 19 19 19 19 18 16 16 15 14
95 94 94 94 98 100 93 83 80 79 77 79 78 74 75 76 74 78 87 94 97 100 102 101 97 95 98 101 101 101 99 97 97 94 94 98 101 102 100 91 82 88 100 101 98 98 99 101 101 100 100 100 100 100 100 101 98 82 55 36 30 28 27 27 26 25 24 22 22 22 22 21 21 21 21 21 21 21 21 20 20 19 18 17 16
97 94 93 95 97 96 92 91 93 90 83 76 64 56 60 65 64 70 86 97 99 98 96 97 97 96 98 101 101 101 100 98 96 97 99 100 100 100 96 85 81 91 100 101 99 98 98 99 101 100 100 100 100 100 101 100 90 67 42 32 30 29 28 28 27 26 25 23 23 23 23 23 23 22 22 22 23 23 23 23 23 23 21 20 20
98 95 93 92 92 93 92 93 94 90 84 77 61 50 59 72 74 79 91 99 99 98 96 96 99 99 100 101 100 98 98 97 95 96 101 102 99 94 86 79 83 94 98 95 96 99 100 98 97 97 97 98 98 99 101 95 76 51 34 31 31 29 29 29 28 27 25 24 24 24 24 24 23 23 23 23 24 24 25 25 25 26 26 24 23
98 99 95 87 88 93 92 92 95 95 90 82 66 50 57 77 90 95 97 96 95 98 100 99 100 101 100 101 99 95 94 94 94 96 100 100 96 90 83 80 87 97 98 95 94 96 98 98 97 96 98 98 99 101 99 84 59 39 33 32 31 29 29 29 28 27 25 25 25 25 24 24 24 24 23 23 24 25 26 27 28 28 29 29 28
98 102 97 91 94 97 91 90 99 101 96 92 79 57 53 76 98 102 98 96 95 98 101 100 100 101 101 100 97 92 90 92 95 97 98 98 94 87 84 88 95 99 100 100 99 96 98 99 98 97 99 100 100 101 92 70 47 35 33 32 30 30 30 30 28 27 26 26 26 25 24 24 23 23 23 23 24 25 25 26 29 29 29 32 32
98 100 96 95 98 96 89 92 102 102 97 101 96 71 56 74 99 103 97 96 98 99 101 101 100 101 102 97 91 88 87 86 86 88 90 90 86 81 83 92 100 101 99 101 101 99 99 98 96 96 98 100 102 98 80 56 40 35 33 32 30 30 30 29 27 27 27 27 26 25 25 24 23 23 24 23 23 25 25 25 27 29 30 33 35
98 98 97 99 100 96 94 97 101 97 94 103 105 85 65 75 97 103 98 98 99 99 101 101 98 98 101 99 93 91 91 87 83 81 81 79 77 80 88 96 101 101 100 100 101 101 100 97 95 97 99 101 100 89 65 45 37 35 34 33 32 30 29 27 27 28 27 27 27 26 25 24 23 23 23 23 23 24 25 24 26 28 30 32 35
98 98 98 100 100 101 100 98 93 90 93 101 104 90 76 82 99 103 98 99 101 99 100 101 95 91 94 99 100 98 98 97 93 91 90 89 89 93 98 100 100 101 100 99 98 99 100 98 97 98 101 101 94 76 53 40 37 37 36 35 32 29 28 27 26 27 27 26 26 26 24 23 23 23 23 23 24 24 24 24 25 28 31 33 36
101 100 98 97 98 100 99 93 89 88 90 96 99 91 83 89 101 102 98 100 101 98 100 102 97 90 89 96 101 101 99 100 100 97 98 100 100 100 100 100 100 100 100 98 95 96 98 99 98 99 101 98 85 64 47 40 40 39 37 34 30 27 27 26 25 26 26 25 25 25 24 23 23 23 22 23 24 24 25 25 25 27 31 34 37
101 101 100 97 97 99 98 94 91 88 87 93 98 93 87 93 101 101 99 101 100 99 100 101 99 96 92 91 97 100 99 99 101 100 100 101 100 100 100 99 97 96 97 98 97 97 98 99 99 101 100 91 72 55 47 44 44 42 38 33 29 26 25 24 24 25 25 24 24 24 23 23 23 23 23 24 24 25 26 26 26 28 31 35 38
100 101 101 99 98 100 100 98 95 91 89 95 99 94 91 95 100 100 100 100 100 101 98 92 93 99 95 89 93 100 97 93 95 99 101 101 100 99 98 94 91 93 97 100 101 100 100 100 100 100 94 79 61 51 48 48 47 44 40 34 29 26 23 23 23 23 23 23 23 23 23 23 23 24 24 24 25 26 27 27 28 30 31 35 39
101 100 101 100 100 100 99 100 98 94 91 94 97 97 97 99 99 100 101 100 100 100 93 83 85 94 93 87 93 101 98 92 92 97 100 101 101 101 98 91 89 94 100 101 101 100 100 100 101 98 88 73 60 53 53 53 51 48 41 34 29 25 23 23 23 22 23 23 23 23 23 24 24 25 25 26 27 28 29 29 30 32 34 37 41
101 100 100 101 101 100 99 100 100 96 93 92 94 97 100 100 99 99 101 98 97 98 95 89 89 94 92 90 95 100 99 97 97 97 99 101 100 100 100 98 96 98 101 100 100 100 99 99 100 96 88 78 69 63 60 58 55 49 42 35 29 25 24 24 23 23 23 23 23 24 25 25 25 26 27 28 29 31 32 33 33 34 37 39 44
101 100 100 100 100 100 100 100 100 98 96 94 93 94 97 98 98 100 100 95 95 99 100 97 95 93 92 95 100 101 99 101 101 99 99 101 99 97 100 101 101 100 100 100 101 101 100 100 99 95 88 81 73 67 62 60 55 49 42 36 30 27 26 25 25 25 25 25 25 26 26 26 27 28 28 31 33 34 34 35 35 37 42 48 55
101 101 100 100 100 100 100 100 100 99 99 98 97 97 97 98 99 99 95 89 90 98 103 100 95 91 90 95 100 100 99 101 101 100 100 101 100 99 100 101 101 100 101 101 101 100 100 101 100 95 88 80 71 66 64 61 56 49 42 37 32 29 28 28 27 27 27 26 27 28 28 28 30 31 32 34 36 35 36 39 42 48 56 65 70
98 99 100 100 101 100 100 100 100 99 100 101 99 97 98 99 99 98 95 90 90 97 102 100 97 95 94 95 98 101 100 100 100 100 100 100 100 101 101 100 100 100 100 100 100 100 100 101 100 96 89 81 75 71 68 63 56 49 42 38 36 33 32 32 31 30 29 29 29 30 31 31 33 35 37 37 38 39 44 52 60 68 74 78 80
98 100 100 100 100 100 100 101 100 100 101 100 94 93 98 100 95 92 95 97 97 101 101 96 93 97 99 97 98 100 101 100 100 101 100 100 100 101 100 100 101 101 100 100 100 100 100 101 101 97 92 87 83 79 71 62 54 49 45 42 40 38 37 36 34 33 32 32 31 32 34 36 37 38 39 41 46 55 66 75 80 83 83 80 77
100 100 100 100 101 101 100 100 100 100 101 99 94 95 101 100 90 84 87 90 93 98 99 94 92 97 100 99 99 101 101 100 100 101 100 100 100 100 100 100 100 100 100 100 100 100 100 101 101 99 95 92 87 79 69 60 55 52 49 46 45 43 40 38 37 35 34 34 34 36 37 38 39 42 49 59 69 78 83 83 80 75 70 65 60
100 101 101 100 100 100 100 101 101 100 100 101 101 99 98 93 86 83 85 88 91 93 91 88 92 99 101 100 100 101 100 100 100 100 100 101 101 100 101 101 101 101 101 100 100 101 100 100 101 101 97 91 84 75 68 63 59 55 52 49 47 44 42 39 38 36 35 35 36 37 39 43 52 63 72 79 81 78 73 66 60 54 50 46 42
100 100 100 100 100 100 100 100 100 100 101 101 99 93 88 85 84 86 89 92 93 88 81 82 93 100 100 99 101 101 100 101 100 98 98 99 99 99 101 102 101 100 101 100 100 100 100 101 101 99 93 84 77 70 65 61 57 53 51 49 46 43 40 38 36 35 35 37 40 46 55 66 75 78 75 69 63 56 50 45 41 38 37 36 35
Wind_Speed
35 35 34 35 35 36 37 36 36 35 35 35 36 37 37 37 37 37 38 38 39 41 43 43 45 47 50 54 53 49 46 45 45 45 44 42 41 40 38 38 40 44 46 46 44 44 43 43 44 46 51 54 54 53 50 49 49 49 50 50 49 49 48 47 47 47 45 43 42 42 41 40 41 39 38 39 39 37 37 38 41 43 44 45 45
34 34 34 35 35 35 35 34 34 34 35 35 36 37 38 38 38 39 39 40 40 41 43 43 44 44 46 50 51 50 48 45 44 45 45 43 41 39 38 36 36 39 43 45 45 44 42 42 44 47 51 53 53 52 50 48 47 47 47 47 48 47 47 47 47 47 47 45 44 44 43 42 42 42 41 42 41 39 37 38 41 43 44 44 45
33 33 34 34 34 34 33 32 32 33 34 35 35 36 36 37 38 39 40 41 42 42 43 44 45 44 44 46 48 49 49 47 43 43 44 43 41 38 36 35 34 34 38 42 44 44 42 41 45 47 49 51 51 50 48 47 46 46 45 45 46 47 46 47 47 47 48 47 46 45 43 43 44 44 43 44 44 41 39 40 41 43 43 44 44
33 32 32 33 33 34 33 32 31 32 32 33 33 34 35 36 37 39 41 42 43 43 43 44 45 45 43 43 45 46 48 48 44 42 42 42 41 39 36 35 35 34 35 37 40 43 44 44 46 47 48 49 49 48 46 45 43 43 43 43 44 46 46 46 47 47 47 48 47 45 43 43 45 44 44 45 44 42 41 41 42 43 42 43 44
34 33 32 32 32 32 33 32 32 32 32 32 33 33 35 36 37 38 40 41 42 42 43 43 43 44 42 41 42 43 46 47 44 42 42 42 41 40 38 36 36 35 34 34 36 40 42 43 44 45 46 47 48 46 43 42 41 40 41 41 42 43 44 44 45 45 46 47 46 45 43 43 44 43 42 43 43 41 40 41 43 42 42 42 43
35 34 33 32 32 31 31 31 31 32 32 33 35 36 37 38 38 38 38 39 40 40 40 40 40 41 40 39 39 40 42 44 44 42 42 41 42 41 39 38 37 36 35 35 35 37 39 40 40 41 43 44 45 44 41 39 40 40 40 40 40 41 41 42 43 43 44 45 44 42 41 41 42 41 39 40 42 41 40 41 42 41 41 43 44
35 34 34 34 33 32 31 31 32 33 34 35 36 37 38 39 38 37 36 36 36 36 36 35 36 36 37 36 37 37 38 40 42 42 42 41 42 42 39 38 39 38 37 35 35 37 38 38 38 39 40 41 42 41 40 40 40 40 39 39 39 39 40 40 40 41 42 42 41 40 40 39 39 38 37 38 39 40 39 40 41 41 41 43 44
35 35 36 36 35 33 32 31 32 33 35 36 36 37 38 37 36 35 34 34 33 33 34 34 35 35 34 34 34 35 37 37 39 41 42 40 41 42 40 39 39 39 38 36 36 37 38 38 38 37 38 39 40 41 41 42 42 40 39 39 39 38 38 38 39 40 41 41 40 39 38 38 37 35 34 36 38 38 38 39 41 41 41 43 43
36 37 38 37 35 34 32 31 31 32 35 36 36 37 38 36 34 33 32 31 31 31 32 33 34 34 33 33 34 35 36 35 36 40 41 39 39 40 40 39 39 39 38 37 36 37 38 38 38 37 37 38 40 41 42 43 42 40 40 40 39 38 37 38 39 39 39 40 39 38 37 37 34 32 33 34 36 37 37 38 40 41 42 43 42
38 40 41 41 39 36 35 34 31 31 34 35 35 36 37 36 34 31 30 29 29 30 31 31 32 32 32 33 33 35 36 35 34 37 39 36 36 38 38 38 40 39 38 37 37 37 38 39 39 38 37 38 39 41 42 43 42 40 40 41 39 37 37 38 38 38 39 39 38 37 36 35 32 32 32 33 35 36 36 38 40 41 42 43 42
42 43 44 45 43 39 37 37 34 31 33 34 34 36 36 35 32 30 29 29 30 30 30 29 29 30 31 32 33 34 36 35 33 34 35 34 34 36 37 37 39 40 38 37 36 36 36 38 38 38 37 37 39 40 41 42 40 39 40 41 39 36 37 37 37 37 38 38 37 35 34 33 31 31 31 32 33 35 35 37 38 40 42 43 42
47 48 47 46 45 40 37 38 37 34 33 33 34 36 36 33 30 29 28 29 29 29 29 28 26 27 29 31 33 34 35 34 33 33 35 35 34 35 36 36 37 38 38 37 35 34 34 35 36 36 36 37 37 38 40 40 39 39 41 41 37 36 37 36 35 36 36 37 36 33 31 31 31 30 30 31 33 33 34 36 37 39 40 41 42
52 52 48 46 45 42 39 38 38 36 33 32 33 34 34 32 29 28 27 28 29 29 28 27 26 26 26 28 30 31 32 32 33 33 35 36 34 33 34 35 35 35 36 35 34 32 32 33 33 34 35 36 37 39 40 40 41 42 41 39 36 36 35 34 33 34 35 36 35 32 30 30 30 29 28 30 32 33 34 35 36 38 38 39 41
52 51 48 43 42 42 41 39 37 35 32 30 30 32 32 30 28 27 27 28 29 28 28 27 26 25 25 25 27 28 27 28 30 32 33 34 32 31 31 33 33 32 33 32 31 31 31 31 32 33 35 36 38 40 42 42 42 41 38 36 35 33 32 30 31 32 34 34 33 30 29 29 29 28 27 29 32 33 35 35 35 36 38 39 40
50 49 45 40 38 39 38 35 34 32 30 29 29 30 29 28 27 26 27 28 28 28 28 27 25 25 26 26 26 26 26 25 25 28 30 31 30 30 31 32 30 30 30 30 30 30 30 30 31 32 33 35 38 40 41 41 40 37 35 34 32 29 28 28 29 31 32 33 31 29 27 27 28 28 28 29 31 33 34 35 35 37 39 39 39
47 45 41 35 33 35 33 29 28 28 28 28 28 28 27 27 26 26 27 28 28 29 29 27 25 25 26 26 25 24 24 23 22 25 27 27 27 30 31 30 28 27 28 29 29 29 30 31 30 29 30 33 36 37 39 39 37 35 33 31 28 26 26 27 28 30 30 30 28 28 27 27 27 28 28 30 31 33 34 34 34 37 40 40 39
43 40 36 31 30 30 26 23 24 25 26 27 27 26 26 25 24 26 28 29 29 30 30 29 28 28 26 26 25 22 21 22 21 23 25 25 25 29 31 29 27 26 27 28 29 30 30 30 29 28 30 33 34 36 37 36 34 33 30 27 25 24 24 26 28 29 27 27 27 27 27 27 27 27 28 30 31 33 34 34 34 36 39 40 40
40 36 31 28 28 26 22 21 22 24 25 26 26 25 24 23 23 25 27 29 31 31 32 31 31 31 29 27 25 22 20 20 19 21 23 24 25 28 29 28 26 25 25 27 29 30 31 30 29 29 31 32 33 34 34 33 32 29 26 24 24 23 24 26 27 26 25 25 26 26 26 26 26 26 27 29 29 31 33 34 34 36 38 39 41
38 34 29 26 27 26 22 20 21 23 24 24 24 24 23 22 23 24 26 29 31 33 34 33 32 32 30 27 24 20 18 19 19 20 22 23 25 27 28 28 26 23 23 26 29 30 29 28 28 29 30 31 31 32 32 30 27 25 23 22 23 23 23 25 25 24 24 24 24 25 25 25 25 26 26 27 28 30 32 33 35 36 38 38 40
35 33 29 25 24 23 19 18 20 22 22 22 22 22 22 21 23 24 26 28 30 32 34 34 33 32 29 26 21 17 17 18 19 20 22 23 24 26 26 25 23 21 22 26 29 29 28 28 28 29 30 30 31 31 28 25 22 21 21 21 22 22 23 23 23 23 23 23 23 23 23 24 24 24 25 26 27 29 31 32 34 36 38 38 39
32 30 26 21 18 16 15 16 19 20 20 21 21 21 20 20 22 24 26 28 30 31 32 34 34 31 26 22 18 15 16 18 18 20 22 22 23 24 23 22 21 20 22 26 28 28 27 27 27 27 28 29 29 27 24 21 19 19 20 21 22 22 22 22 22 21 21 22 22 22 22 22 23 23 24 25 26 28 29 32 33 35 36 37 38
28 25 20 15 13 13 13 15 17 17 18 20 21 19 18 19 21 24 26 28 30 32 32 33 31 27 21 18 16 16 17 18 18 19 19 20 21 21 20 19 18 18 22 26 27 26 25 24 24 24 26 26 25 24 22 20 18 18 20 22 21 22 22 21 20 20 20 21 20 20 20 21 21 21 23 24 25 27 28 30 31 32 33 35 36
24 20 15 13 13 14 14 14 14 15 17 19 19 18 18 19 22 25 28 30 30 30 30 29 25 20 16 15 16 17 18 17 16 16 16 16 15 14 13 14 13 13 17 22 23 22 22 22 21 22 24 24 23 23 21 18 17 18 20 21 21 21 20 19 19 19 19 19 18 18 19 19 19 20 22 23 24 25 26 27 28 28 30 32 33
19 14 12 12 13 13 12 11 12 13 16 18 18 18 18 20 24 26 27 28 27 25 24 23 19 15 14 14 15 16 15 13 13 13 13 12 10 8 8 10 12 12 14 17 20 20 19 19 20 21 21 22 23 22 19 17 17 18 19 20 20 19 18 18 18 18 18 17 17 17 17 17 18 19 20 21 22 23 25 26 25 26 27 29 31
17 12 10 9 9 8 9 10 11 12 15 17 18 18 20 22 25 25 25 26 25 22 20 19 17 14 13 14 13 12 10 9 10 11 12 12 10 9 9 9 11 14 15 15 16 17 17 18 19 19 20 21 22 20 18 17 18 18 18 19 19 18 18 18 17 17 16 16 16 16 16 16 17 18 19 21 21 22 23 24 24 25 26 27 29
17 12 10 8 7 8 9 10 11 12 14 16 18 19 20 23 23 23 23 25 24 20 17 17 15 12 12 12 11 7 6 9 8 8 12 12 10 9 8 7 7 12 16 15 13 13 16 18 18 19 20 21 20 18 17 17 17 17 18 19 18 18 17 17 16 15 14 14 14 14 15 16 17 18 19 20 21 21 22 22 23 24 25 25 27
18 14 11 8 6 8 10 11 12 13 14 16 18 19 20 21 22 21 22 23 22 18 17 16 13 10 9 9 8 5 4 8 9 8 10 11 8 7 8 7 4 5 9 12 11 12 14 17 18 19 20 20 18 18 19 18 17 17 18 18 18 17 16 15 14 13 13 13 13 13 14 15 17 18 19 20 21 21 21 21 22 23 24 25 26
16 14 11 7 6 8 10 10 12 14 15 18 19 19 20 21 21 20 20 21 21 18 18 17 11 7 8 8 7 6 4 5 8 7 8 10 9 9 9 8 4 1 1 4 8 13 15 16 17 18 19 18 19 20 20 18 17 18 18 18 17 16 14 13 12 12 12 12 12 13 14 15 16 17 18 19 20 21 21 21 22 23 24 26 27
15 12 8 6 7 8 9 10 13 15 16 17 18 19 20 21 20 18 17 18 18 16 17 17 11 7 8 8 6 7 6 6 7 7 7 9 11 12 10 6 3 3 2 2 6 11 15 15 15 16 17 18 20 21 19 18 18 18 17 17 15 14 13 12 11 11 11 11 12 12 13 14 16 17 18 19 19 20 21 21 22 22 24 26 28
13 9 4 4 6 8 9 10 13 14 14 16 18 19 19 19 19 19 17 16 15 15 14 13 10 8 10 10 8 8 8 9 9 10 10 10 11 11 10 6 3 5 6 5 7 10 14 15 15 15 17 19 20 20 19 19 18 18 17 16 14 12 12 11 10 10 10 11 11 12 12 13 15 16 17 18 18 19 20 21 22 23 24 25 27
12 8 4 3 6 9 10 11 12 12 13 16 18 18 18 18 17 17 17 16 14 13 14 13 10 9 10 11 10 9 8 10 12 13 13 11 8 9 9 7 7 7 7 7 8 10 14 17 16 16 18 21 21 20 19 19 18 17 16 14 13 12 11 10 9 10 10 10 11 11 12 13 14 15 16 16 17 18 19 20 21 22 23 25 26
12 10 5 3 5 7 9 11 13 14 15 15 15 15 17 18 16 14 15 15 13 12 14 15 16 15 15 15 14 12 10 10 12 13 14 13 10 10 9 10 10 9 9 9 10 12 15 17 18 18 20 21 20 19 19 18 17 16 14 13 12 11 10 9 9 9 9 10 10 10 11 12 13 14 15 16 17 18 18 19 20 20 22 23 24
11 11 7 4 3 5 8 11 13 14 15 15 14 13 15 18 15 11 9 12 14 14 14 16 19 20 19 16 15 13 11 11 13 14 14 15 15 13 12 12 12 11 9 9 11 14 17 19 20 21 21 20 19 19 19 18 16 15 14 13 11 10 9 8 9 9 9 9 10 10 11 12 13 14 15 16 17 17 18 18 19 19 20 21 22
10 10 7 3 1 3 6 10 12 14 15 16 16 14 13 15 15 12 10 11 13 14 15 17 19 18 16 12 10 10 10 10 14 16 15 16 17 16 14 13 13 12 10 9 11 14 18 20 20 20 20 20 20 19 18 17 16 14 13 12 10 9 8 8 8 8 8 9 9 10 11 12 13 14 15 16 17 17 18 19 19 19 19 19 20
10 9 7 4 2 3 6 9 11 13 15 17 17 14 10 12 14 15 14 14 13 14 17 20 20 16 12 7 6 8 9 9 13 17 19 19 19 16 14 14 12 12 12 12 12 14 17 19 20 20 20 20 19 18 17 16 15 14 13 11 9 8 8 8 8 8 8 8 9 10 11 12 13 14 15 15 17 17 18 19 20 20 20 19 19
12 11 9 6 4 2 5 8 10 12 14 17 18 15 9 9 14 17 16 14 14 16 19 23 23 19 12 4 2 6 7 7 9 14 18 20 19 16 14 13 11 11 12 13 14 17 19 21 21 21 20 19 18 17 17 16 15 14 12 10 9 8 8 8 7 7 8 8 8 10 11 12 13 14 15 16 17 18 19 20 21 21 22 21 21
12 12 10 7 4 1 3 6 9 11 13 15 18 16 10 7 13 17 16 13 14 17 21 23 25 24 17 8 3 2 4 5 6 9 13 15 16 14 12 11 10 11 12 13 16 19 21 21 21 20 19 18 18 17 17 16 14 13 11 10 9 8 8 7 7 7 7 8 8 10 11 12 13 15 16 17 18 18 19 20 21 22 22 22 22
10 11 10 7 5 3 2 5 7 9 11 12 16 17 11 7 10 15 14 13 13 16 21 22 23 25 22 13 6 3 1 3 5 8 10 12 12 11 10 11 12 13 13 14 16 19 20 20 20 19 18 18 17 17 17 16 14 12 11 10 9 8 7 7 7 7 7 8 9 10 11 12 13 15 16 17 18 18 19 19 20 21 22 22 22
7 8 8 5 4 4 3 4 6 8 10 11 14 15 11 7 9 12 12 12 12 15 19 20 20 23 23 18 11 6 2 2 5 7 8 10 11 11 12 13 14 14 14 15 17 18 19 19 19 18 18 17 17 17 17 15 14 12 11 10 9 8 7 7 7 7 7 8 9 10 12 13 14 15 17 18 19 19 19 19 20 20 21 22 22
6 7 7 5 3 3 3 4 6 9 10 10 13 13 9 7 9 10 11 11 11 13 17 18 18 19 22 21 17 11 6 2 6 9 9 9 10 11 13 14 13 11 13 16 19 20 20 19 18 18 17 17 17 17 17 15 13 13 11 9 8 8 7 7 7 7 8 9 11 12 13 14 15 16 18 18 19 20 20 20 21 21 21 22 22
5 6 7 6 5 5 4 5 6 9 9 10 12 11 8 6 8 9 10 11 11 11 13 15 15 16 18 20 20 17 11 7 4 6 10 11 12 13 13 13 13 12 14 18 21 22 20 19 19 18 18 18 17 16 15 14 13 12 11 9 8 8 7 7 7 8 9 11 12 13 15 16 17 18 19 20 20 20 21 21 21 21 22 22 22
3 4 5 5 6 6 5 5 7 7 8 9 10 9 7 7 7 8 10 13 13 11 10 10 11 13 15 18 20 18 12 9 7 5 6 10 13 14 14 14 14 15 16 19 21 21 20 20 19 18 18 17 16 16 15 14 13 12 10 9 8 8 8 8 8 9 11 12 13 15 16 18 19 19 20 21 21 21 21 21 22 22 22 22 22
6 6 5 4 4 5 5 5 5 5 6 8 8 8 8 8 6 7 11 14 14 13 13 11 10 11 13 15 19 18 12 7 5 5 3 7 10 13 14 15 15 16 18 20 21 22 21 20 20 19 18 17 17 17 16 14 13 11 10 9 9 8 8 9 10 11 12 14 15 16 18 19 20 21 22 22 22 22 22 22 22 22 23 23 23
9 9 7 4 3 2 2 3 3 1 4 7 7 8 8 6 6 8 11 13 13 14 15 15 13 12 12 13 17 19 14 7 4 2 2 5 7 9 12 14 15 15 17 19 20 21 20 19 18 17 16 16 16 15 13 12 11 10 10 9 9 9 10 11 12 13 14 15 16 18 19 20 21 22 23 23 23 23 23 23 23 23 23 24 24
10 8 6 4 3 2 1 2 2 1 4 7 9 9 7 6 6 7 9 11 11 13 16 17 15 13 12 13 17 19 15 8 4 2 1 4 6 6 7 10 12 14 15 17 18 18 17 15 14 14 13 13 12 11 11 10 10 10 10 10 10 11 11 12 14 15 16 17 18 19 20 21 22 23 24 24 24 24 24 24 24 24 24 24 25
9 7 6 5 4 4 4 4 4 4 5 6 7 8 8 6 5 7 10 10 9 10 13 15 16 15 14 14 16 18 15 10 6 3 1 4 5 5 6 9 12 15 16 17 17 16 14 13 12 12 11 11 10 10 10 10 10 10 10 10 11 12 13 14 15 16 17 18 19 20 21 22 23 24 24 24 24 25 25 25 25 25 25 26 26
9 7 6 7 7 7 7 7 6 6 4 2 3 6 7 5 4 8 12 13 10 8 9 11 13 15 16 16 17 18 15 11 8 4 1 3 4 5 7 11 14 16 17 16 15 13 12 11 10 9 9 10 10 10 10 9 9 9 10 11 12 13 14 16 16 17 18 19 20 21 22 23 23 24 24 24 25 25 25 25 26 26 26 26 27
9 8 7 7 8 9 9 8 7 6 4 3 3 6 5 3 4 7 11 11 10 10 11 10 10 12 14 15 16 17 15 11 7 3 3 5 5 6 9 13 14 15 15 14 12 11 9 8 7 6 7 8 8 8 7 7 8 10 11 12 13 14 15 16 17 18 19 20 20 21 22 23 23 24 24 24 25 25 25 26 26 26 27 26 26
9 9 8 7 7 8 7 5 6 6 5 4 3 4 2 3 5 9 10 10 10 10 12 11 9 9 11 13 15 16 15 11 7 5 8 10 10 11 13 14 14 14 12 11 10 8 6 5 5 4 5 5 5 5 6 7 8 10 11 12 13 14 15 16 17 18 19 19 20 21 22 22 23 23 24 25 25 25 26 26 26 26 26 26 26
9 10 10 10 9 7 6 5 6 7 5 3 4 5 6 6 10 12 13 13 13 13 12 10 7 7 9 11 14 15 13 10 8 9 13 16 16 16 16 16 14 12 11 9 7 5 4 3 3 3 3 3 3 4 5 6 8 9 10 11 13 14 15 16 17 17 18 19 20 21 21 22 23 23 24 25 25 25 25 25 25 25 25 25 25
10 10 10 10 9 8 7 6 5 5 4 3 4 7 9 11 13 14 16 17 18 16 12 7 5 5 7 10 12 13 12 9 10 14 18 20 19 19 18 16 14 12 10 7 6 5 4 4 3 2 1 1 2 3 4 6 7 9 10 11 12 13 14 15 16 17 18 19 20 21 21 22 23 23 24 24 24 24 24 24 24 25 24 24 25
Wind_Direction
307 303 297 291 287 283 282 283 284 285 285 284 284 284 283 283 282 281 279 277 276 276 277 276 273 269 264 260 259 256 253 253 253 253 254 255 255 253 252 252 251 251 251 249 249 251 252 253 252 252 251 250 251 251 253 255 256 257 257 257 256 256 258 260 263 264 265 267 268 270 271 272 273 274 275 275 275 276 278 279 280 281 283 286 289
309 305 301 297 294 290 288 287 287 287 286 285 286 285 286 286 285 284 282 280 278 276 276 276 275 273 269 265 262 257 253 253 253 251 251 254 256 254 252 251 253 254 253 252 251 251 253 254 255 254 252 251 252 253 253 255 256 257 257 257 257 257 258 260 262 264 265 267 268 270 272 273 275 277 278 278 279 279 280 280 281 282 284 287 290
310 307 304 301 299 296 293 291 289 288 286 286 286 286 287 288 288 288 287 285 282 279 277 276 275 275 272 268 266 260 254 254 254 250 249 251 254 255 253 252 252 254 254 254 253 252 252 254 255 254 251 251 251 252 253 254 255 258 258 258 258 257 258 259 261 264 266 268 269 271 273 274 275 277 278 280 281 282 283 282 282 283 286 289 291
310 308 305 303 302 300 298 298 295 291 288 286 287 288 289 290 290 291 291 289 286 282 279 276 275 275 273 269 267 263 257 254 253 250 246 247 250 253 254 252 251 252 253 255 254 252 252 252 254 253 250 250 250 251 253 254 257 260 261 261 261 260 260 261 264 267 268 270 271 273 275 274 274 276 278 280 281 283 284 283 283 285 288 291 293
309 308 306 304 303 301 300 299 296 293 291 290 291 292 292 293 294 294 293 292 289 285 281 278 276 274 273 269 266 265 261 256 253 248 244 243 245 248 251 251 251 250 251 253 253 251 251 251 253 253 251 251 251 252 254 257 260 262 263 263 263 263 265 266 267 269 270 272 274 275 275 274 273 275 277 280 281 282 283 283 284 287 290 292 293
309 308 307 306 304 303 301 300 299 298 297 297 297 296 297 298 298 297 296 293 289 286 282 280 278 276 274 269 264 263 262 259 256 249 243 242 241 242 246 248 250 250 250 250 250 249 250 250 251 251 252 253 254 255 257 260 262 263 263 264 264 266 267 268 270 272 273 274 275 276 275 274 273 275 277 279 281 282 283 283 285 288 291 293 294
309 308 307 306 307 307 305 305 305 305 304 303 301 300 300 302 302 301 298 294 289 286 284 282 281 279 277 272 266 263 260 258 257 252 245 242 240 239 241 244 246 248 248 247 246 246 247 249 248 249 251 254 255 257 259 260 261 262 264 264 264 266 268 270 273 275 275 276 276 276 275 273 273 275 277 279 280 281 282 284 287 290 293 295 295
309 308 307 307 308 308 307 306 307 307 306 304 303 303 304 304 304 302 298 294 291 287 285 285 285 284 281 274 269 266 260 254 255 254 248 245 242 239 240 241 242 244 245 243 242 243 244 246 246 246 248 251 254 256 258 260 261 261 263 264 265 267 270 272 274 275 276 276 275 275 274 273 274 275 277 278 279 280 283 285 288 291 293 295 295
310 309 308 307 306 305 303 301 302 304 304 303 303 305 308 307 305 302 298 294 292 289 287 287 287 284 279 273 269 269 264 253 249 250 249 248 245 241 240 241 241 242 242 241 239 240 242 244 245 244 245 248 251 253 256 258 260 261 263 264 265 267 270 272 274 275 275 274 274 274 274 273 275 276 276 277 278 281 284 287 289 292 294 295 296
312 311 309 307 304 301 299 297 297 299 300 301 303 305 307 307 305 302 298 295 294 293 290 287 285 282 277 273 269 268 265 255 246 246 249 250 248 244 239 239 240 239 240 240 239 239 240 241 243 243 243 245 248 251 254 257 260 261 263 264 264 266 269 271 273 274 274 273 273 274 273 274 275 275 276 277 279 282 285 288 292 294 295 296 298
312 310 307 304 301 299 297 295 294 296 298 300 304 305 305 306 303 300 298 297 296 295 293 290 287 282 278 274 271 268 265 258 247 243 246 250 252 250 242 237 238 237 236 238 238 239 240 240 241 242 242 243 245 249 253 256 258 260 262 263 264 265 267 270 272 273 272 272 272 272 273 274 275 275 277 279 281 284 287 291 294 296 297 299 301
310 308 304 300 297 295 296 296 294 294 297 301 303 303 303 303 303 301 298 298 298 296 295 294 289 284 281 278 275 272 267 261 250 243 243 244 250 254 246 238 237 236 234 235 236 237 239 240 242 242 242 242 243 246 249 251 253 256 258 261 262 263 266 269 270 270 270 270 271 271 273 275 276 278 280 282 284 287 292 295 297 298 299 301 304
306 305 302 298 294 292 292 294 294 293 297 302 303 302 302 301 302 301 298 297 299 298 298 297 292 288 286 283 279 275 269 261 251 243 241 241 247 253 245 236 238 238 235 233 234 235 237 240 243 244 243 241 241 243 246 248 252 254 257 258 259 260 264 268 269 268 268 269 270 271 274 275 277 280 284 287 289 292 295 297 298 300 302 304 306
302 302 301 298 295 293 291 290 291 292 297 303 304 302 301 300 299 299 297 297 300 300 299 297 295 294 293 290 286 280 274 266 251 242 240 240 245 250 241 233 237 241 238 235 233 235 237 240 242 243 242 240 239 242 246 249 253 255 256 256 256 259 263 265 266 266 266 268 269 271 275 278 281 285 289 292 293 296 298 300 303 304 305 306 307
302 302 302 298 295 296 295 289 286 290 297 302 303 301 300 298 297 297 295 296 298 298 298 297 297 297 297 297 292 282 279 275 257 243 241 241 244 246 237 232 237 243 242 238 235 235 237 239 240 240 239 237 237 241 246 249 252 253 252 253 255 258 261 261 262 263 265 267 271 276 279 282 285 289 293 295 296 299 301 304 308 307 306 307 309
303 303 302 298 297 299 297 288 282 287 295 301 301 299 298 297 296 295 294 295 296 297 298 298 296 296 298 300 296 285 279 278 264 248 243 243 245 244 235 231 238 244 244 241 238 235 236 237 237 236 235 234 234 237 244 248 249 249 248 251 254 255 256 257 258 260 263 268 274 279 282 285 288 292 296 298 299 301 304 307 310 308 308 310 311
305 304 302 298 297 298 293 283 280 285 294 300 299 297 299 298 296 296 294 295 297 298 299 300 299 299 302 303 301 291 281 277 266 249 243 245 249 244 235 233 239 244 245 244 240 235 233 233 233 231 230 230 231 237 243 246 246 246 247 249 250 251 252 253 256 259 263 269 274 278 281 285 290 295 297 299 301 304 307 310 311 310 310 312 312
307 306 303 297 295 291 283 280 285 291 297 299 296 296 301 301 298 297 295 296 299 301 301 303 304 304 306 307 303 295 285 279 267 247 240 245 249 244 236 236 243 246 245 243 239 234 230 228 227 225 223 225 230 236 241 241 241 244 245 245 246 247 249 251 255 259 265 270 274 279 283 287 292 296 298 300 302 305 309 311 312 312 313 313 313
308 308 304 297 291 285 279 283 295 301 301 298 296 299 304 302 298 297 295 296 299 301 303 305 306 305 306 305 303 296 286 279 267 246 237 240 244 241 236 237 244 247 242 238 235 231 226 225 223 219 219 223 228 232 234 236 239 241 241 241 243 245 247 251 255 260 265 270 275 280 284 289 293 296 298 301 305 308 310 313 314 314 314 314 313
310 309 306 298 291 285 284 292 302 306 303 299 300 303 303 299 297 296 295 295 297 300 303 305 305 304 304 301 299 292 282 276 264 246 237 237 239 237 235 237 242 241 235 233 231 227 222 220 218 216 218 222 224 226 228 232 235 237 238 241 243 244 247 250 254 260 265 271 276 280 285 290 293 296 299 303 308 311 313 315 316 315 314 314 313
314 313 309 301 294 291 294 299 305 309 306 303 304 305 303 300 297 295 294 297 300 302 303 303 302 303 301 297 292 285 277 272 259 244 238 237 234 233 234 238 240 236 231 228 226 222 217 216 216 217 219 220 220 222 226 228 230 233 237 240 241 243 247 249 253 260 265 269 275 279 285 289 292 296 302 306 311 314 315 316 317 315 314 314 313
321 321 314 304 299 300 301 303 307 311 308 305 307 307 303 298 294 294 298 303 306 305 303 302 302 303 299 293 287 281 274 266 252 237 231 229 228 230 232 232 232 229 223 222 221 217 213 213 214 215 217 218 218 220 225 227 227 228 233 238 240 242 246 249 253 260 264 268 274 280 284 288 292 298 306 311 314 316 316 316 316 314 314 314 313
327 327 316 304 303 306 305 304 308 309 306 306 308 307 303 299 297 300 306 309 309 307 304 303 304 302 296 290 283 278 273 261 240 223 217 217 219 223 218 212 214 217 214 214 216 214 210 208 208 209 212 215 217 220 225 228 228 229 232 237 239 241 246 250 254 259 264 269 275 279 282 289 297 304 309 313 315 315 315 314 315 316 316 316 315
333 336 325 310 304 301 300 303 307 307 305 306 308 309 308 306 305 308 313 316 318 316 310 307 305 300 291 283 276 273 267 249 219 207 206 206 209 213 207 207 214 217 214 214 213 210 206 203 203 206 211 214 216 220 224 226 229 232 235 238 241 244 247 250 254 258 264 270 274 280 286 295 303 308 310 312 313 313 313 315 319 321 321 320 318
336 347 343 326 310 302 306 311 309 306 304 306 310 312 311 310 311 314 319 325 328 326 317 309 304 298 291 283 277 273 254 218 192 192 198 199 205 215 214 215 219 218 220 222 214 205 203 203 205 209 215 218 219 220 222 226 230 235 238 240 243 246 246 249 253 258 265 272 277 285 294 300 306 309 309 310 311 311 315 320 326 327 326 325 324
335 345 345 338 332 326 322 315 307 304 305 306 308 312 314 315 317 319 323 330 334 332 327 317 304 295 293 285 279 275 235 200 183 182 186 187 196 205 199 199 215 220 223 226 216 205 207 210 211 213 217 219 219 217 220 227 233 237 239 240 241 242 244 249 255 260 268 276 283 291 299 304 307 308 307 308 309 313 320 326 329 330 329 330 331
334 339 339 338 332 320 314 310 306 306 305 304 308 314 317 318 320 321 325 334 340 343 344 334 310 295 305 297 282 281 244 205 195 192 185 180 187 198 196 200 219 225 222 224 223 220 222 223 222 220 218 217 215 216 220 227 234 238 239 239 238 240 245 251 258 265 273 281 288 296 302 305 306 306 307 310 313 317 324 328 330 331 332 334 337
329 335 340 338 318 303 304 308 308 306 306 308 313 319 319 320 323 324 325 332 341 347 352 349 331 308 322 316 290 290 280 216 207 211 193 181 192 209 207 209 234 295 228 231 237 235 236 238 233 227 221 216 215 218 222 226 231 235 237 237 238 241 248 256 263 272 279 284 292 300 303 303 305 307 310 312 316 321 325 328 331 333 335 338 340
324 332 342 337 310 299 305 309 307 307 309 313 319 324 325 325 327 325 320 325 335 342 349 355 357 350 344 333 300 279 262 224 219 226 209 201 218 225 210 194 221 269 287 299 269 246 240 240 235 227 220 216 217 222 224 225 229 232 234 236 239 242 251 260 267 275 282 288 295 300 302 304 307 310 312 314 318 322 325 328 332 336 339 341 341
323 327 334 329 313 309 315 314 309 310 317 322 326 329 331 330 327 322 318 323 333 338 341 349 358 353 343 337 318 286 254 228 222 221 218 225 231 221 201 185 222 252 258 277 276 250 233 226 224 220 216 214 217 222 224 225 228 230 231 234 239 244 253 261 269 277 283 289 296 299 303 307 310 311 313 316 319 323 326 330 334 339 341 341 340
317 315 306 315 317 317 322 324 323 326 329 329 329 330 331 334 330 321 318 324 332 333 330 330 331 328 324 322 315 297 263 237 223 214 215 221 210 190 194 212 230 241 255 265 263 246 228 218 214 212 211 213 217 220 223 226 228 228 229 232 238 245 254 262 270 277 282 288 296 300 304 308 310 311 314 318 321 324 329 333 337 340 340 340 340
308 307 300 302 314 320 328 335 340 338 332 329 328 325 327 335 336 325 320 325 331 331 327 325 321 316 311 307 303 295 273 245 227 216 213 214 202 194 208 221 222 233 254 257 245 234 224 214 209 207 208 212 217 220 224 227 226 225 226 230 236 244 253 261 270 276 282 290 295 302 307 310 313 315 317 321 324 327 331 335 339 340 340 339 339
291 301 301 296 309 325 334 339 342 339 333 329 325 322 330 342 349 346 337 337 339 338 333 326 320 314 309 302 292 282 270 246 228 218 213 212 213 215 218 218 221 235 252 250 235 226 219 213 209 206 205 208 215 220 223 223 222 221 223 227 234 243 251 261 270 275 283 293 300 307 314 315 316 318 322 324 326 329 333 337 339 341 340 339 338
267 290 295 285 304 330 335 341 343 343 340 333 325 324 342 358 360 1 4 359 350 341 333 331 330 323 314 303 278 260 254 240 224 216 211 213 220 223 219 216 224 234 239 239 235 225 217 211 207 204 204 207 213 218 220 218 216 218 221 226 234 243 251 260 269 276 286 298 306 313 317 318 320 324 326 327 329 332 336 337 338 340 341 340 340
245 267 279 284 309 337 347 346 341 339 342 339 330 329 351 8 1 356 359 359 352 342 343 351 355 347 328 305 252 231 231 228 218 214 215 221 227 228 219 216 226 234 232 232 231 221 210 204 200 199 202 207 211 214 214 213 212 214 220 226 233 241 250 259 268 279 290 300 310 316 320 323 325 328 328 329 332 335 336 337 338 339 341 343 344
235 241 253 269 286 334 354 341 328 329 338 343 339 336 348 8 1 353 353 355 352 352 3 14 16 9 0 357 200 208 216 220 213 211 217 225 229 226 217 214 221 228 226 225 221 212 202 197 195 196 201 206 208 209 209 208 209 213 219 225 233 240 250 260 270 281 292 302 312 319 323 327 329 331 332 333 336 338 337 338 339 340 341 344 345
236 238 242 248 243 255 335 324 320 327 333 336 338 337 341 5 3 353 350 354 357 4 17 26 24 19 18 28 60 155 190 208 211 206 211 217 217 212 208 209 215 221 221 218 214 206 198 193 194 196 200 204 206 206 206 206 207 213 219 225 233 242 252 263 273 282 293 305 315 321 326 330 333 335 337 337 338 340 340 340 340 339 340 343 344
241 243 242 235 216 207 283 306 314 324 325 325 332 335 335 352 2 355 352 355 4 17 27 29 24 19 21 25 26 32 101 185 205 205 206 211 211 206 203 209 220 225 220 211 205 200 195 194 195 197 200 203 203 202 203 204 206 212 220 226 233 244 255 264 274 285 297 308 318 323 328 332 336 339 341 340 339 340 341 340 339 339 339 340 341
243 246 247 243 219 207 240 275 293 311 319 324 332 334 334 346 355 352 351 356 9 26 33 31 22 17 19 25 26 14 355 210 206 206 207 214 217 213 210 215 225 229 221 204 194 193 194 196 197 199 201 203 202 200 201 203 206 213 221 228 235 246 257 266 277 291 303 312 320 325 328 334 338 340 341 340 339 340 341 340 339 338 337 337 338
254 254 258 264 251 233 248 262 279 302 317 328 333 333 334 345 348 345 347 356 13 34 39 34 24 15 15 23 28 24 8 284 234 222 213 208 205 206 211 217 220 221 214 200 190 190 194 195 195 199 202 200 199 200 201 202 207 215 223 230 238 249 261 272 285 299 308 315 322 327 330 335 338 340 340 339 339 339 339 339 338 338 338 337 336
271 269 268 272 271 269 268 261 273 295 314 328 332 331 332 339 344 347 350 353 6 32 41 34 26 17 12 16 20 22 19 5 310 246 221 209 198 193 199 207 205 202 204 200 193 189 191 192 194 198 199 197 197 200 202 205 211 219 225 233 243 255 267 281 294 304 311 318 324 329 331 334 336 338 339 338 338 338 337 337 338 338 337 336 335
321 304 287 279 274 273 269 258 265 291 318 330 330 332 338 342 346 357 2 356 355 7 18 17 16 15 11 7 8 12 17 13 354 318 243 217 206 196 190 192 196 199 200 197 192 188 187 189 193 196 195 193 196 200 204 209 216 222 230 238 249 261 275 288 298 305 313 320 325 329 330 332 334 336 337 336 336 336 336 336 336 335 335 334 333
12 1 345 322 292 280 273 259 259 293 329 337 341 349 354 355 7 19 9 356 348 348 354 357 1 7 8 3 2 7 14 14 356 337 272 230 219 209 199 196 198 200 197 193 191 188 186 187 191 193 191 192 197 202 208 213 219 226 235 246 256 269 282 292 300 307 314 320 324 327 328 330 332 334 334 334 333 334 334 334 333 333 333 332 330
18 12 9 6 345 311 283 246 228 287 342 351 6 14 9 17 41 34 6 353 350 356 3 5 4 7 9 4 359 1 3 6 9 357 262 232 225 220 215 209 202 195 192 193 192 188 185 187 190 192 195 198 204 209 214 218 224 232 242 253 265 277 287 294 301 308 314 319 322 324 325 327 329 330 331 331 331 331 332 332 331 331 331 330 329
17 17 21 22 17 25 64 160 170 101 15 12 21 23 17 27 46 30 357 348 359 14 17 11 4 3 6 3 359 358 356 354 1 9 248 218 216 221 220 209 194 184 182 186 186 182 181 185 190 194 200 207 212 218 221 224 231 241 250 262 274 282 290 297 303 309 314 317 319 321 322 325 327 327 328 328 329 329 330 330 329 329 329 327 326
25 29 38 43 46 59 78 92 85 55 30 17 16 13 10 14 23 10 356 357 14 28 21 11 5 3 0 360 2 0 356 351 351 346 239 200 208 213 193 177 173 173 173 175 176 175 177 183 189 196 202 208 215 222 227 232 242 251 260 271 280 286 292 299 304 309 313 315 317 318 320 322 324 325 326 327 327 327 328 328 327 327 327 325 324
38 41 48 57 63 62 60 58 47 26 16 23 15 5 6 13 12 1 360 5 18 22 4 360 9 9 359 357 3 2 353 350 354 350 213 169 179 185 169 161 164 169 170 170 170 170 174 183 191 197 201 207 216 227 234 243 254 262 270 278 283 289 295 300 305 308 311 312 314 316 319 321 324 325 325 326 326 326 327 327 326 326 325 324 324
44 47 48 58 68 64 55 47 33 20 33 62 17 347 352 23 22 360 351 350 355 352 338 336 358 9 358 355 3 1 352 353 8 32 120 126 130 145 151 153 159 164 165 165 165 166 173 183 191 197 204 211 222 233 243 254 262 268 275 282 287 292 297 301 304 307 309 311 314 317 320 322 323 323 324 325 326 326 327 326 326 325 325 325 324
54 58 56 59 67 64 55 49 46 45 56 58 19 2 40 49 3 345 337 332 333 334 327 326 342 359 355 356 2 1 357 4 28 82 114 114 116 126 134 140 148 152 153 155 156 159 168 178 184 197 210 220 232 243 251 259 266 272 280 286 291 295 299 301 303 307 310 314 317 319 320 322 322 323 325 325 326 327 327 327 327 327 326 325 325
70 72 66 61 59 52 40 43 52 50 51 55 50 47 39 5 338 333 335 334 329 324 322 325 339 351 353 359 5 4 5 20 56 100 112 111 113 118 122 127 133 136 138 141 143 144 154 163 167 182 204 221 241 252 259 267 274 281 287 291 295 298 301 303 308 312 315 317 319 320 321 323 324 325 326 326 327 328 328 327 327 327 326 325 326
72 67 59 53 46 41 39 45 54 54 50 46 30 9 351 338 329 326 325 324 324 326 333 348 13 9 1 6 9 9 17 47 89 108 112 112 113 116 118 121 125 126 127 129 127 124 125 125 125 133 157 214 253 266 276 283 287 292 296 298 300 304 306 310 315 317 318 320 321 322 323 325 325 326 327 327 327 328 328 327 328 328 328 328 329